Time,TemperatureF,DewpointF,PressureIn,WindDirection,WindDirectionDegrees,WindSpeedMPH,WindSpeedGustMPH,Humidity,HourlyPrecipIn,Conditions,Clouds,dailyrainin,SoftwareType,DateUTC
2013-01-08 00:02:00,28.0,20.0,26.31,North,5,0.0,1.0,70,0.00,,,0.00,,2013-01-08 07:02:00,
2013-01-08 00:12:00,28.0,20.0,26.31,North,5,0.0,1.0,70,0.00,,,0.00,,2013-01-08 07:12:00,
2013-01-08 00:22:00,28.0,20.0,26.30,North,5,0.0,0.0,70,0.00,,,0.00,,2013-01-08 07:22:00,
2013-01-08 00:32:00,28.0,20.0,26.30,North,5,0.0,0.0,70,0.00,,,0.00,,2013-01-08 07:32:00,
2013-01-08 00:42:00,28.0,20.0,26.30,North,5,0.0,0.0,70,0.00,,,0.00,,2013-01-08 07:42:00,
2013-01-08 00:52:00,28.0,20.0,26.29,North,360,2.0,3.0,70,0.00,,,0.00,,2013-01-08 07:52:00,
2013-01-08 01:02:00,29.0,20.0,26.28,NNE,28,0.0,5.0,70,0.00,,,0.00,,2013-01-08 08:02:00,
2013-01-08 01:12:00,29.0,20.0,26.28,NNE,28,0.0,5.0,70,0.00,,,0.00,,2013-01-08 08:12:00,
2013-01-08 01:22:00,29.0,20.0,26.29,WNW,293,5.0,6.0,70,0.00,,,0.00,,2013-01-08 08:22:00,
2013-01-08 01:32:00,31.0,22.0,26.28,West,278,4.0,8.0,68,0.00,,,0.00,,2013-01-08 08:32:00,
2013-01-08 01:42:00,31.0,22.0,26.28,West,278,4.0,8.0,68,0.00,,,0.00,,2013-01-08 08:42:00,
2013-01-08 01:53:00,33.0,21.0,26.28,West,278,5.0,7.0,61,0.00,,,0.00,,2013-01-08 08:53:00,
2013-01-08 02:02:00,33.0,20.0,26.28,WNW,286,1.0,4.0,59,0.00,,,0.00,,2013-01-08 09:02:00,
2013-01-08 02:12:00,33.0,20.0,26.28,WNW,286,1.0,4.0,59,0.00,,,0.00,,2013-01-08 09:12:00,
2013-01-08 02:22:00,33.0,19.0,26.28,WNW,286,1.0,6.0,57,0.00,,,0.00,,2013-01-08 09:22:00,
2013-01-08 02:32:00,35.0,19.0,26.28,West,281,5.0,8.0,52,0.00,,,0.00,,2013-01-08 09:32:00,
2013-01-08 02:42:00,35.0,19.0,26.28,West,281,5.0,8.0,52,0.00,,,0.00,,2013-01-08 09:42:00,
2013-01-08 02:52:00,34.0,19.0,26.29,NNW,334,1.0,8.0,53,0.00,,,0.00,,2013-01-08 09:52:00,
2013-01-08 03:02:00,34.0,19.0,26.29,NNW,334,0.0,4.0,54,0.00,,,0.00,,2013-01-08 10:02:00,
2013-01-08 03:12:00,34.0,19.0,26.29,NNW,334,0.0,4.0,54,0.00,,,0.00,,2013-01-08 10:12:00,
2013-01-08 03:22:00,34.0,19.0,26.30,NNW,333,0.0,5.0,53,0.00,,,0.00,,2013-01-08 10:22:00,
2013-01-08 03:32:00,34.0,20.0,26.31,NNE,30,1.0,6.0,55,0.00,,,0.00,,2013-01-08 10:32:00,
2013-01-08 03:42:00,34.0,20.0,26.31,NNE,30,1.0,6.0,55,0.00,,,0.00,,2013-01-08 10:42:00,
2013-01-08 03:52:00,33.0,19.0,26.30,NNE,30,0.0,0.0,57,0.00,,,0.00,,2013-01-08 10:52:00,
2013-01-08 04:02:00,33.0,19.0,26.30,NNE,30,0.0,1.0,57,0.00,,,0.00,,2013-01-08 11:02:00,
2013-01-08 04:12:00,33.0,19.0,26.30,NNE,30,0.0,1.0,57,0.00,,,0.00,,2013-01-08 11:12:00,
2013-01-08 04:22:00,32.0,19.0,26.30,NNE,30,0.0,0.0,58,0.00,,,0.00,,2013-01-08 11:22:00,
2013-01-08 04:32:00,31.0,19.0,26.30,NNE,30,0.0,0.0,60,0.00,,,0.00,,2013-01-08 11:32:00,
2013-01-08 04:42:00,31.0,19.0,26.30,NNE,30,0.0,0.0,60,0.00,,,0.00,,2013-01-08 11:42:00,
2013-01-08 04:53:00,31.0,19.0,26.30,NNE,30,0.0,1.0,61,0.00,,,0.00,,2013-01-08 11:53:00,
2013-01-08 05:02:00,33.0,21.0,26.31,NNE,28,0.0,3.0,60,0.00,,,0.00,,2013-01-08 12:02:00,
2013-01-08 05:12:00,33.0,21.0,26.31,NNE,28,0.0,3.0,60,0.00,,,0.00,,2013-01-08 12:12:00,
2013-01-08 05:22:00,35.0,22.0,26.32,NNE,28,1.0,4.0,58,0.00,,,0.00,,2013-01-08 12:22:00,
2013-01-08 05:32:00,35.0,22.0,26.32,WNW,299,3.0,10.0,59,0.00,,,0.00,,2013-01-08 12:32:00,
2013-01-08 05:42:00,35.0,22.0,26.32,WNW,299,3.0,10.0,59,0.00,,,0.00,,2013-01-08 12:42:00,
2013-01-08 05:53:00,37.0,24.0,26.33,WNW,290,1.0,5.0,59,0.00,,,0.00,,2013-01-08 12:53:00,
2013-01-08 06:03:00,40.0,26.0,26.33,West,269,5.0,7.0,56,0.00,,,0.00,,2013-01-08 13:03:00,
2013-01-08 06:12:00,40.0,26.0,26.33,West,269,5.0,7.0,56,0.00,,,0.00,,2013-01-08 13:12:00,
2013-01-08 06:22:00,42.0,26.0,26.33,West,273,7.0,13.0,52,0.00,,,0.00,,2013-01-08 13:22:00,
2013-01-08 06:32:00,44.0,26.0,26.34,North,349,8.0,18.0,49,0.00,,,0.00,,2013-01-08 13:32:00,
2013-01-08 06:42:00,44.0,26.0,26.34,North,349,8.0,18.0,49,0.00,,,0.00,,2013-01-08 13:42:00,
2013-01-08 06:53:00,44.0,26.0,26.35,West,276,8.0,19.0,49,0.00,,,0.00,,2013-01-08 13:53:00,
2013-01-08 07:02:00,44.0,27.0,26.36,WNW,302,6.0,25.0,50,0.00,,,0.00,,2013-01-08 14:02:00,
2013-01-08 07:12:00,44.0,27.0,26.36,WNW,302,6.0,25.0,50,0.00,,,0.00,,2013-01-08 14:12:00,
2013-01-08 07:23:00,43.0,26.0,26.37,NW,322,10.0,16.0,50,0.00,,,0.00,,2013-01-08 14:23:00,
2013-01-08 07:33:00,43.0,26.0,26.37,NW,311,10.0,16.0,51,0.00,,,0.00,,2013-01-08 14:33:00,
2013-01-08 07:42:00,43.0,26.0,26.37,NW,311,10.0,16.0,51,0.00,,,0.00,,2013-01-08 14:42:00,
2013-01-08 07:53:00,42.0,27.0,26.38,West,272,5.0,12.0,54,0.00,,,0.00,,2013-01-08 14:53:00,
2013-01-08 08:02:00,42.0,27.0,26.39,NW,313,5.0,14.0,55,0.00,,,0.00,,2013-01-08 15:02:00,
2013-01-08 08:12:00,42.0,27.0,26.39,NW,313,5.0,14.0,55,0.00,,,0.00,,2013-01-08 15:12:00,
2013-01-08 08:22:00,42.0,27.0,26.39,WNW,288,3.0,7.0,55,0.00,,,0.00,,2013-01-08 15:22:00,
2013-01-08 08:33:00,42.0,27.0,26.40,NW,323,6.0,13.0,55,0.00,,,0.00,,2013-01-08 15:33:00,
2013-01-08 08:43:00,42.0,27.0,26.40,NW,323,6.0,13.0,55,0.00,,,0.00,,2013-01-08 15:43:00,
2013-01-08 08:53:00,42.0,27.0,26.42,WNW,288,6.0,10.0,56,0.00,,,0.00,,2013-01-08 15:53:00,
2013-01-08 09:03:00,42.0,27.0,26.42,NW,313,5.0,10.0,56,0.00,,,0.00,,2013-01-08 16:03:00,
2013-01-08 09:12:00,42.0,27.0,26.42,NW,313,5.0,10.0,56,0.00,,,0.00,,2013-01-08 16:12:00,
2013-01-08 09:22:00,42.0,28.0,26.44,WNW,286,5.0,9.0,57,0.00,,,0.00,,2013-01-08 16:22:00,
2013-01-08 09:33:00,42.0,28.0,26.43,NW,324,3.0,8.0,57,0.00,,,0.00,,2013-01-08 16:33:00,
2013-01-08 09:42:00,42.0,28.0,26.43,NW,324,3.0,8.0,57,0.00,,,0.00,,2013-01-08 16:42:00,
2013-01-08 09:53:00,43.0,28.0,26.44,WNW,290,1.0,9.0,56,0.00,,,0.00,,2013-01-08 16:53:00,
2013-01-08 10:03:00,43.0,28.0,26.44,WNW,301,5.0,10.0,56,0.00,,,0.00,,2013-01-08 17:03:00,
2013-01-08 10:13:00,43.0,28.0,26.44,WNW,301,5.0,10.0,56,0.00,,,0.00,,2013-01-08 17:13:00,
2013-01-08 10:23:00,43.0,28.0,26.44,NW,306,1.0,9.0,54,0.00,,,0.00,,2013-01-08 17:23:00,
2013-01-08 10:33:00,44.0,28.0,26.45,NW,322,7.0,11.0,52,0.00,,,0.00,,2013-01-08 17:33:00,
2013-01-08 10:43:00,44.0,28.0,26.45,NW,322,7.0,11.0,52,0.00,,,0.00,,2013-01-08 17:43:00,
2013-01-08 10:54:00,45.0,26.0,26.44,NNW,334,7.0,16.0,47,0.00,,,0.00,,2013-01-08 17:54:00,
2013-01-08 11:03:00,46.0,25.0,26.44,NNW,345,9.0,16.0,43,0.00,,,0.00,,2013-01-08 18:03:00,
2013-01-08 11:12:00,46.0,25.0,26.44,NNW,345,9.0,16.0,43,0.00,,,0.00,,2013-01-08 18:12:00,
2013-01-08 11:23:00,46.0,24.0,26.44,West,273,18.0,26.0,41,0.00,,,0.00,,2013-01-08 18:23:00,
2013-01-08 11:33:00,47.0,24.0,26.44,ESE,106,14.0,21.0,40,0.00,,,0.00,,2013-01-08 18:33:00,
2013-01-08 11:43:00,47.0,24.0,26.44,ESE,106,14.0,21.0,40,0.00,,,0.00,,2013-01-08 18:43:00,
2013-01-08 11:53:00,46.0,22.0,26.44,NW,314,13.0,32.0,39,0.00,,,0.00,,2013-01-08 18:53:00,
2013-01-08 12:03:00,47.0,23.0,26.44,NNW,337,15.0,30.0,39,0.00,,,0.00,,2013-01-08 19:03:00,
2013-01-08 12:12:00,47.0,23.0,26.44,NNW,337,15.0,30.0,39,0.00,,,0.00,,2013-01-08 19:12:00,
2013-01-08 12:22:00,46.0,22.0,26.44,North,355,19.0,26.0,38,0.00,,,0.00,,2013-01-08 19:22:00,
2013-01-08 12:32:00,47.0,22.0,26.44,NNW,340,11.0,25.0,37,0.00,,,0.00,,2013-01-08 19:32:00,
2013-01-08 12:42:00,47.0,22.0,26.44,NNW,340,11.0,25.0,37,0.00,,,0.00,,2013-01-08 19:42:00,
2013-01-08 12:53:00,48.0,22.0,26.44,NNE,17,12.0,23.0,36,0.00,,,0.00,,2013-01-08 19:53:00,
2013-01-08 13:03:00,47.0,22.0,26.44,NW,326,16.0,27.0,37,0.00,,,0.00,,2013-01-08 20:03:00,
2013-01-08 13:12:00,47.0,22.0,26.44,NW,326,16.0,27.0,37,0.00,,,0.00,,2013-01-08 20:12:00,
2013-01-08 13:23:00,47.0,21.0,26.44,North,349,13.0,27.0,36,0.00,,,0.00,,2013-01-08 20:23:00,
2013-01-08 13:33:00,47.0,22.0,26.44,WNW,298,14.0,22.0,37,0.00,,,0.00,,2013-01-08 20:33:00,
2013-01-08 13:43:00,47.0,22.0,26.44,WNW,298,14.0,22.0,37,0.00,,,0.00,,2013-01-08 20:43:00,
2013-01-08 13:53:00,47.0,22.0,26.45,WNW,295,15.0,23.0,37,0.00,,,0.00,,2013-01-08 20:53:00,
2013-01-08 14:03:00,47.0,21.0,26.45,NNW,331,14.0,24.0,35,0.00,,,0.00,,2013-01-08 21:03:00,
2013-01-08 14:12:00,47.0,21.0,26.45,NNW,331,14.0,24.0,35,0.00,,,0.00,,2013-01-08 21:12:00,
2013-01-08 14:23:00,47.0,19.0,26.46,NW,306,13.0,23.0,33,0.00,,,0.00,,2013-01-08 21:23:00,
2013-01-08 14:33:00,47.0,19.0,26.47,North,355,12.0,22.0,33,0.00,,,0.00,,2013-01-08 21:33:00,
2013-01-08 14:43:00,47.0,19.0,26.47,North,355,12.0,22.0,33,0.00,,,0.00,,2013-01-08 21:43:00,
2013-01-08 14:53:00,47.0,19.0,26.49,WNW,294,11.0,23.0,33,0.00,,,0.00,,2013-01-08 21:53:00,
2013-01-08 15:03:00,46.0,22.0,26.49,NNW,341,10.0,21.0,38,0.00,,,0.00,,2013-01-08 22:03:00,
2013-01-08 15:12:00,46.0,22.0,26.49,NNW,341,10.0,21.0,38,0.00,,,0.00,,2013-01-08 22:12:00,
2013-01-08 15:23:00,45.0,25.0,26.50,NE,36,9.0,25.0,46,0.00,,,0.00,,2013-01-08 22:23:00,
2013-01-08 15:32:00,42.0,28.0,26.52,North,350,9.0,18.0,58,0.00,,,0.00,,2013-01-08 22:32:00,
2013-01-08 15:42:00,42.0,28.0,26.52,North,350,9.0,18.0,58,0.00,,,0.00,,2013-01-08 22:42:00,
2013-01-08 15:53:00,41.0,28.0,26.53,NNE,28,8.0,18.0,60,0.00,,,0.00,,2013-01-08 22:53:00,
2013-01-08 16:02:00,40.0,28.0,26.53,NE,43,9.0,16.0,63,0.00,,,0.00,,2013-01-08 23:02:00,
2013-01-08 16:12:00,40.0,28.0,26.53,NE,43,9.0,16.0,63,0.00,,,0.00,,2013-01-08 23:12:00,
2013-01-08 16:22:00,39.0,28.0,26.54,NNE,32,8.0,14.0,65,0.00,,,0.00,,2013-01-08 23:22:00,
2013-01-08 16:32:00,39.0,28.0,26.55,North,5,7.0,14.0,65,0.00,,,0.00,,2013-01-08 23:32:00,
2013-01-08 16:43:00,39.0,28.0,26.55,North,5,7.0,14.0,65,0.00,,,0.00,,2013-01-08 23:43:00,
2013-01-08 16:53:00,39.0,27.0,26.56,NE,42,9.0,14.0,63,0.00,,,0.00,,2013-01-08 23:53:00,
2013-01-08 17:02:00,38.0,26.0,26.57,ENE,71,9.0,20.0,62,0.00,,,0.00,,2013-01-09 00:02:00,
2013-01-08 17:12:00,38.0,26.0,26.57,ENE,71,9.0,20.0,62,0.00,,,0.00,,2013-01-09 00:12:00,
2013-01-08 17:22:00,37.0,26.0,26.57,NNW,348,8.0,14.0,63,0.00,,,0.00,,2013-01-09 00:22:00,
2013-01-08 17:33:00,37.0,26.0,26.59,North,5,5.0,12.0,64,0.00,,,0.00,,2013-01-09 00:33:00,
2013-01-08 17:42:00,37.0,26.0,26.59,North,5,5.0,12.0,64,0.00,,,0.00,,2013-01-09 00:42:00,
2013-01-08 17:53:00,37.0,26.0,26.59,NNW,337,7.0,10.0,65,0.00,,,0.00,,2013-01-09 00:53:00,
2013-01-08 18:02:00,37.0,26.0,26.60,NE,40,8.0,16.0,64,0.00,,,0.00,,2013-01-09 01:02:00,
2013-01-08 18:12:00,37.0,26.0,26.60,NE,40,8.0,16.0,64,0.00,,,0.00,,2013-01-09 01:12:00,
2013-01-08 18:22:00,36.0,25.0,26.61,North,5,7.0,12.0,65,0.00,,,0.00,,2013-01-09 01:22:00,
2013-01-08 18:32:00,36.0,26.0,26.62,NNW,338,7.0,11.0,66,0.00,,,0.00,,2013-01-09 01:32:00,
2013-01-08 18:42:00,36.0,26.0,26.62,NNW,338,7.0,11.0,66,0.00,,,0.00,,2013-01-09 01:42:00,
2013-01-08 18:52:00,37.0,26.0,26.62,North,349,9.0,15.0,65,0.00,,,0.00,,2013-01-09 01:52:00,
2013-01-08 19:02:00,36.0,25.0,26.63,North,9,5.0,9.0,65,0.00,,,0.00,,2013-01-09 02:02:00,
2013-01-08 19:12:00,36.0,25.0,26.63,North,9,5.0,9.0,65,0.00,,,0.00,,2013-01-09 02:12:00,
2013-01-08 19:22:00,36.0,25.0,26.63,North,360,4.0,7.0,65,0.00,,,0.00,,2013-01-09 02:22:00,
2013-01-08 19:32:00,36.0,25.0,26.63,North,360,0.0,5.0,65,0.00,,,0.00,,2013-01-09 02:32:00,
2013-01-08 19:42:00,36.0,25.0,26.63,North,360,0.0,5.0,65,0.00,,,0.00,,2013-01-09 02:42:00,
2013-01-08 19:53:00,35.0,24.0,26.64,North,360,0.0,1.0,65,0.00,,,0.00,,2013-01-09 02:53:00,
2013-01-08 20:03:00,34.0,24.0,26.65,NW,311,3.0,5.0,67,0.00,,,0.00,,2013-01-09 03:03:00,
2013-01-08 20:12:00,34.0,24.0,26.65,NW,311,3.0,5.0,67,0.00,,,0.00,,2013-01-09 03:12:00,
2013-01-08 20:22:00,34.0,24.0,26.65,NW,311,0.0,5.0,67,0.00,,,0.00,,2013-01-09 03:22:00,
2013-01-08 20:33:00,32.0,23.0,26.66,NW,311,2.0,4.0,68,0.00,,,0.00,,2013-01-09 03:33:00,
2013-01-08 20:43:00,32.0,23.0,26.66,NW,311,2.0,4.0,68,0.00,,,0.00,,2013-01-09 03:43:00,
2013-01-08 20:53:00,33.0,23.0,26.66,NW,311,0.0,5.0,67,0.00,,,0.00,,2013-01-09 03:53:00,
2013-01-08 21:02:00,31.0,22.0,26.68,NW,311,0.0,2.0,68,0.00,,,0.00,,2013-01-09 04:02:00,
2013-01-08 21:12:00,31.0,22.0,26.68,NW,311,0.0,2.0,68,0.00,,,0.00,,2013-01-09 04:12:00,
2013-01-08 21:22:00,30.0,21.0,26.68,NW,311,0.0,0.0,68,0.00,,,0.00,,2013-01-09 04:22:00,
2013-01-08 21:32:00,29.0,20.0,26.68,NW,311,0.0,2.0,70,0.00,,,0.00,,2013-01-09 04:32:00,
2013-01-08 21:42:00,29.0,20.0,26.68,NW,311,0.0,2.0,70,0.00,,,0.00,,2013-01-09 04:42:00,
2013-01-08 21:52:00,29.0,21.0,26.68,NW,311,1.0,4.0,71,0.00,,,0.00,,2013-01-09 04:52:00,
2013-01-08 22:03:00,28.0,20.0,26.69,NW,311,1.0,4.0,72,0.00,,,0.00,,2013-01-09 05:03:00,
2013-01-08 22:12:00,28.0,20.0,26.69,NW,311,1.0,4.0,72,0.00,,,0.00,,2013-01-09 05:12:00,
2013-01-08 22:22:00,28.0,20.0,26.69,ESE,119,6.0,9.0,73,0.00,,,0.00,,2013-01-09 05:22:00,
2013-01-08 22:33:00,26.0,19.0,26.70,SE,126,0.0,5.0,74,0.00,,,0.00,,2013-01-09 05:33:00,
2013-01-08 22:42:00,26.0,19.0,26.70,SE,126,0.0,5.0,74,0.00,,,0.00,,2013-01-09 05:42:00,
2013-01-08 22:53:00,25.0,18.0,26.70,SE,126,3.0,6.0,75,0.00,,,0.00,,2013-01-09 05:53:00,
2013-01-08 23:02:00,25.0,19.0,26.70,SE,132,5.0,6.0,77,0.00,,,0.00,,2013-01-09 06:02:00,
2013-01-08 23:12:00,25.0,19.0,26.70,SE,132,5.0,6.0,77,0.00,,,0.00,,2013-01-09 06:12:00,
2013-01-08 23:22:00,25.0,19.0,26.72,SE,130,1.0,4.0,78,0.00,,,0.00,,2013-01-09 06:22:00,
2013-01-08 23:32:00,25.0,19.0,26.71,SE,130,0.0,0.0,78,0.00,,,0.00,,2013-01-09 06:32:00,
2013-01-08 23:42:00,25.0,19.0,26.71,SE,130,0.0,0.0,78,0.00,,,0.00,,2013-01-09 06:42:00,
2013-01-08 23:52:00,25.0,19.0,26.72,SE,130,1.0,2.0,78,0.00,,,0.00,,2013-01-09 06:52:00,